This is the latest recevied weather packets stored in our database for station/object W5CMS-13. If no packets are shown the sender has not sent any weather packets the latest 10 day(s).
| Time | Temp. | Humidity | Pressure | Rain* | Wind** | Luminosity | Snow |
|---|---|---|---|---|---|---|---|
| 1787894117 | 28.89° C | 61% | 1015.3 hPa | 0 mm | - | - | - |
| 1787893518 | 29.44° C | 60% | 1015.2 hPa | 0 mm | - | - | - |
| 1787892917 | 30° C | 59% | 1015.2 hPa | 0 mm | - | - | - |
| 1787892317 | 30° C | 58% | 1015.2 hPa | 0 mm | - | - | - |
| 1787891717 | 30° C | 57% | 1015 hPa | 0 mm | - | - | - |
| 1787891126 | 30.56° C | 56% | 1015 hPa | 0 mm | - | - | - |
| 1787890518 | 30.56° C | 55% | 1015 hPa | 0 mm | - | - | - |
| 1787889917 | 31.11° C | 54% | 1014.9 hPa | 0 mm | - | - | - |
| 1787889317 | 31.11° C | 54% | 1014.7 hPa | 0 mm | - | - | - |
| 1787888718 | 31.11° C | 54% | 1014.7 hPa | 0 mm | - | - | - |
| 1787888117 | 31.67° C | 53% | 1014.5 hPa | 0 mm | - | - | - |
| 1787887517 | 31.67° C | 52% | 1014.5 hPa | 0 mm | - | - | - |
| 1787886917 | 32.22° C | 51% | 1014.3 hPa | 0 mm | - | - | - |
| 1787886318 | 32.22° C | 51% | 1014.3 hPa | 0 mm | - | - | - |
| 1787885717 | 32.22° C | 51% | 1014.1 hPa | 0 mm | - | - | - |
| 1787885117 | 32.78° C | 51% | 1013.9 hPa | 0 mm | - | - | - |
| 1787884518 | 32.22° C | 51% | 1013.9 hPa | 0 mm | - | - | - |
| 1787883917 | 32.22° C | 50% | 1013.7 hPa | 0 mm | - | - | - |
| 1787883317 | 32.78° C | 49% | 1013.7 hPa | 0 mm | - | - | - |
| 1787882717 | 32.78° C | 48% | 1013.5 hPa | 0 mm | - | - | - |
| 1787882117 | 33.33° C | 47% | 1013.3 hPa | 0 mm | - | - | - |
| 1787881517 | 33.33° C | 47% | 1013 hPa | 0 mm | - | - | - |
| 1787880917 | 33.33° C | 46% | 1012.9 hPa | 0 mm | - | - | - |
| 1787880317 | 33.89° C | 46% | 1012.8 hPa | 0 mm | - | - | - |
| 1787879717 | 33.89° C | 46% | 1012.6 hPa | 0 mm | - | - | - |
* Rain latest hour (hover to see other rain measurements)
** Current wind speed in m/s (hover to see current wind gust speed)